TimeCST,TemperatureF,Dew PointF,Humidity,Sea Level PressureIn,VisibilityMPH,Wind Direction,Wind SpeedMPH,Gust SpeedMPH,PrecipitationIn,Events,Conditions,WindDirDegrees,DateUTC
12:53 AM,39.9,37.0,89,30.14,10.0,Calm,Calm,-,N/A,,Clear,0,2013-03-06 06:53:00
1:53 AM,37.9,35.1,89,30.14,7.0,Calm,Calm,-,N/A,,Clear,0,2013-03-06 07:53:00
2:53 AM,44.1,34.0,68,30.13,10.0,NW,10.4,-,N/A,,Clear,320,2013-03-06 08:53:00
3:53 AM,42.1,30.9,65,30.15,10.0,NNW,11.5,-,N/A,,Clear,330,2013-03-06 09:53:00
4:53 AM,42.1,28.0,58,30.17,10.0,NW,11.5,-,N/A,,Clear,320,2013-03-06 10:53:00
5:53 AM,39.9,28.0,63,30.20,10.0,NNW,8.1,-,N/A,,Clear,330,2013-03-06 11:53:00
6:53 AM,41.0,27.0,57,30.22,10.0,NW,8.1,-,N/A,,Clear,320,2013-03-06 12:53:00
7:53 AM,44.1,26.1,49,30.23,10.0,NNW,12.7,21.9,N/A,,Clear,340,2013-03-06 13:53:00
8:53 AM,46.0,25.0,44,30.25,10.0,NW,15.0,21.9,N/A,,Clear,320,2013-03-06 14:53:00
9:53 AM,48.9,24.1,38,30.24,10.0,NNW,16.1,23.0,N/A,,Clear,330,2013-03-06 15:53:00
10:53 AM,52.0,23.0,32,30.22,10.0,NW,17.3,21.9,N/A,,Clear,310,2013-03-06 16:53:00
11:53 AM,55.0,23.0,29,30.21,10.0,NNW,13.8,20.7,N/A,,Clear,340,2013-03-06 17:53:00
12:53 PM,57.0,24.1,28,30.18,10.0,NNW,15.0,23.0,N/A,,Clear,330,2013-03-06 18:53:00
1:53 PM,57.9,24.1,27,30.17,10.0,NNW,19.6,23.0,N/A,,Clear,330,2013-03-06 19:53:00
2:53 PM,57.9,25.0,28,30.16,10.0,NNW,12.7,21.9,N/A,,Clear,330,2013-03-06 20:53:00
3:53 PM,57.0,26.1,30,30.17,10.0,NNW,16.1,21.9,N/A,,Clear,330,2013-03-06 21:53:00
4:53 PM,55.0,27.0,34,30.17,10.0,North,10.4,18.4,N/A,,Clear,350,2013-03-06 22:53:00
5:53 PM,51.1,28.9,43,30.20,10.0,North,3.5,-,N/A,,Clear,350,2013-03-06 23:53:00
6:53 PM,48.0,30.0,50,30.24,10.0,NNW,4.6,-,N/A,,Clear,340,2013-03-07 00:53:00
7:53 PM,46.0,30.0,54,30.24,10.0,NNW,6.9,-,N/A,,Clear,330,2013-03-07 01:53:00
8:53 PM,44.1,30.0,58,30.25,10.0,NNW,4.6,-,N/A,,Clear,330,2013-03-07 02:53:00
9:53 PM,42.1,30.0,62,30.26,10.0,NNW,4.6,-,N/A,,Clear,340,2013-03-07 03:53:00
10:53 PM,42.1,30.0,62,30.27,10.0,NNW,5.8,-,N/A,,Clear,340,2013-03-07 04:53:00
11:53 PM,39.9,30.0,68,30.27,10.0,NNW,3.5,-,N/A,,Clear,330,2013-03-07 05:53:00